| time (UTC) | temp C | wind direction | speed KPH | gust KPH | rain 1hr cm | rain 24hr cm | rain mn cm | humidity % | barometer mb |
| 20260504190002 | 25 | 37 | 3.2 | 8.0 | 0.00 | 0.00 | 0.00 | 32 | 1010.8 |
| 20260504184543 | 25 | 351 | 0.0 | 6.4 | 0.00 | 0.00 | 0.00 | 33 | 1011.0 |
| 20260504183049 | 25 | 149 | 1.6 | 9.7 | 0.00 | 0.00 | 0.00 | 31 | 1011.4 |
| 20260504181519 | 25 | 172 | 1.6 | 6.4 | 0.00 | 0.00 | 0.00 | 32 | 1011.5 |
| 20260504180051 | 25 | 66 | 1.6 | 11.3 | 0.00 | 0.00 | 0.00 | 32 | 1011.9 |
| 20260504174503 | 25 | 141 | 0.0 | 6.4 | 0.00 | 0.00 | 0.00 | 32 | 1012.0 |
| 20260504173034 | 25 | 37 | 1.6 | 8.0 | 0.00 | 0.00 | 0.00 | 32 | 1012.2 |
| 20260504171549 | 24 | 151 | 0.0 | 6.4 | 0.00 | 0.00 | 0.00 | 32 | 1012.4 |
| 20260504081550 | 8 | 103 | 0.0 | 0.0 | 0.00 | 0.00 | 0.00 | 67 | 1015.5 |
| 20260504050012 | 8 | 92 | 0.0 | 0.0 | 0.00 | 0.00 | 0.00 | 65 | 1015.5 |
| 20260504044545 | 8 | 92 | 0.0 | 0.0 | 0.00 | 0.00 | 0.00 | 67 | 1015.5 |
| 20260504043110 | 8 | 92 | 0.0 | 0.0 | 0.00 | 0.00 | 0.00 | 71 | 1015.5 |
| 20260504041529 | 7 | 92 | 0.0 | 0.0 | 0.00 | 0.00 | 0.00 | 68 | 1015.3 |
| 20260504040046 | 7 | 92 | 0.0 | 0.0 | 0.00 | 0.00 | 0.00 | 68 | 1015.4 |
| 20260504034518 | 7 | 92 | 0.0 | 0.0 | 0.00 | 0.00 | 0.00 | 72 | 1015.5 |
| 20260504033056 | 7 | 92 | 0.0 | 0.0 | 0.00 | 0.00 | 0.00 | 69 | 1015.5 |
| 20260504031517 | 7 | 92 | 0.0 | 0.0 | 0.00 | 0.00 | 0.00 | 69 | 1015.5 |
| 20260504030109 | 7 | 92 | 0.0 | 0.0 | 0.00 | 0.00 | 0.00 | 68 | 1015.4 |
| 20260504024517 | 7 | 92 | 0.0 | 0.0 | 0.00 | 0.00 | 0.00 | 67 | 1015.3 |
| 20260504023050 | 7 | 92 | 0.0 | 0.0 | 0.00 | 0.00 | 0.00 | 65 | 1015.4 |
| 20260504021519 | 7 | 92 | 0.0 | 0.0 | 0.00 | 0.00 | 0.00 | 65 | 1015.3 |
| 20260504020036 | 7 | 92 | 0.0 | 0.0 | 0.00 | 0.00 | 0.00 | 63 | 1015.2 |
| 20260504014503 | 8 | 92 | 0.0 | 0.0 | 0.00 | 0.00 | 0.00 | 65 | 1015.2 |
| 20260504013039 | 8 | 92 | 0.0 | 0.0 | 0.00 | 0.00 | 0.00 | 63 | 1015.0 |
| 20260504011553 | 9 | 92 | 0.0 | 0.0 | 0.00 | 0.00 | 0.00 | 60 | 1014.7 |
| 20260504010022 | 10 | 92 | 0.0 | 0.0 | 0.00 | 0.00 | 0.00 | 58 | 1014.7 |
| 20260504004556 | 10 | 92 | 0.0 | 0.0 | 0.00 | 0.00 | 0.00 | 54 | 1014.6 |
| 20260504003037 | 11 | 92 | 0.0 | 0.0 | 0.00 | 0.00 | 0.00 | 51 | 1014.5 |
| 20260504001557 | 12 | 92 | 0.0 | 0.0 | 0.00 | 0.00 | 0.00 | 48 | 1014.5 |
| 20260504000023 | 13 | 92 | 0.0 | 0.0 | 0.00 | 0.00 | 0.00 | 44 | 1014.4 |
| 20260503234557 | 13 | 92 | 0.0 | 0.0 | 0.00 | 0.00 | 0.00 | 40 | 1014.3 |
| 20260503233035 | 15 | 92 | 0.0 | 0.0 | 0.00 | 0.00 | 0.00 | 38 | 1014.2 |
| 20260503231559 | 15 | 90 | 0.0 | 0.0 | 0.00 | 0.00 | 0.00 | 34 | 1014.1 |
| 20260503230028 | 15 | 143 | 0.0 | 1.6 | 0.00 | 0.00 | 0.00 | 32 | 1014.0 |
| 20260503224600 | 16 | 143 | 0.0 | 1.6 | 0.00 | 0.00 | 0.00 | 32 | 1014.1 |
| 20260503223030 | 16 | 92 | 1.6 | 4.8 | 0.00 | 0.00 | 0.00 | 30 | 1014.2 |
| 20260503221546 | 16 | 143 | 0.0 | 6.4 | 0.00 | 0.00 | 0.00 | 31 | 1014.1 |
| 20260503214546 | 16 | 60 | 0.0 | 3.2 | 0.00 | 0.00 | 0.00 | 30 | 1014.2 |
| 20260503213015 | 16 | 89 | 1.6 | 4.8 | 0.00 | 0.00 | 0.00 | 31 | 1014.3 |
| 20260503211532 | 16 | 150 | 0.0 | 3.2 | 0.00 | 0.00 | 0.00 | 33 | 1014.3 |
| 20260503210052 | 16 | 133 | 1.6 | 8.0 | 0.00 | 0.00 | 0.00 | 31 | 1014.3 |
| 20260503204522 | 16 | 45 | 1.6 | 8.0 | 0.00 | 0.00 | 0.00 | 32 | 1014.6 |
| 20260503203043 | 16 | 31 | 1.6 | 6.4 | 0.00 | 0.00 | 0.00 | 33 | 1014.6 |
| 20260503201507 | 16 | 189 | 0.0 | 8.0 | 0.00 | 0.00 | 0.00 | 34 | 1014.7 |
| 20260503200041 | 15 | 221 | 0.0 | 4.8 | 0.00 | 0.00 | 0.00 | 35 | 1015.0 |
| 20260503194602 | 16 | 40 | 3.2 | 6.4 | 0.00 | 0.00 | 0.00 | 33 | 1015.3 |
| 20260503193025 | 16 | 57 | 1.6 | 8.0 | 0.00 | 0.00 | 0.00 | 31 | 1015.6 |
| 20260503191600 | 16 | 42 | 0.0 | 9.7 | 0.00 | 0.00 | 0.00 | 34 | 1015.7 |